User: anonymous   Login
Location: Centerville
(32.8776°N, 96.6203°W)
Time: 08:21:21
(UTC+00:00)
Language:

Cosmos 2219 Rocket - Orbit

View from above orbital plane
View from above orbital plane
View from above satellite
View from above satellite

Ground track
Ground track

The orbit data is extracted from the following two-line orbital elements,

1 22220U 92076B   21263.80831156  .00000094  00000-0  71057-4 0  9995
2 22220  71.0029  22.4980 0011000  54.4976  59.4565 14.16476257490865
Epoch (UTC): 20 September 2021 19:23:58
Eccentricity: 0.0011000
inclination: 71.0029°
perigee height: 829 km
apogee height: 845 km
right ascension of ascending node: 22.4980°
argument of perigee: 54.4976°
revolutions per day: 14.16476257
mean anomaly at epoch: 59.4565°
orbit number at epoch: 49086

The dashed part of the orbit path shows where the satellite is in the earth's shadow,  

DLR